Погода в Эль-Порвенире

Панама     9°33′25″N   78°58′28″W
темп.,
°C
ветер,
м/с
пор.,
м/с
влажн.,
%
обл.,
%
осадки,
мм/ч
давл.,
гПа
погр.,
м
27 января, ср
ср2701:00+26ссв568279 0.3 1010760
04:00+26ссв4685100 0.3 1008585
07:00+26ссв5685100 0.9 1011531
10:00+26ссв568375 2.1 1012656
13:00+27ссв567954 2.9 1010692
16:00+26ссв688124 0.1 1008677
19:00+26ссв678423 0.3 1009652
22:00+26ссв678343 0.1 1012700
28 января, чт
чт2801:00+26ссв568272 0.4 1011748
04:00+26ссв7983100 0.7 1011729
07:00+26ссв7108274 1.2 1012805
10:00+27ссв797916 0.6 10131052
13:00+27ссв8107713 1.3 10111041
16:00+26ссв8107934 1.0 10091057
19:00+26ссв9118121 1.8 1011987
22:00+26ссв911815 0.6 10121025
29 января, пт
пт2901:00+26ссв8108147 1.3 1012999
04:00+25ссв9108198 0.9 10101030
07:00+25ссв9118064 1.8 10111066
10:00+26ссв8107386 0.4 10121147
13:00+26ссв897191 0.6 10111150
16:00+26ссв8107493 0.2 10081124
19:00+26ссв8107687 0.3 10091181
22:00+26ссв8107641 0.1 10111179
30 января, сб
сб3001:00+25ссв8107722 0.1 10101169
04:00+26ссв8117497 0.2 10091373
07:00+26св9127777 0.7 10101255
10:00+27св9117349 0.4 10121355
13:00+27св8107142 0.6 10091269
16:00+26св797225 0.0 10071143
19:00+26св8107540 0.0 10081079
22:00+26св8107828 0.0 10101088
31 января, вс
вс3101:00+26св8108048 0.3 10091086
04:00+26св8980100 0.4 1008986
07:00+26св7982100 0.9 1010871
10:00+27св787880 0.6 1011908
13:00+27св677874 0.8 1009704
16:00+27ссв568099 0.2 1007638
19:00+26ссв578499 0.3 1008612
22:00+26ссв568385 0.1 1010630